This is the latest recevied weather packets stored in our database for station/object JF7BTK-10. If no packets are shown the sender has not sent any weather packets the latest 10 day(s).
| Time | Temp. | Humidity | Pressure | Rain* | Wind** | Luminosity | Snow |
|---|---|---|---|---|---|---|---|
| 1778093199 | 11.11° C | 74% | 1007.9 hPa | 0 mm | - | - | - |
| 1778092299 | 11.67° C | 75% | 1008.2 hPa | 0 mm | - | - | - |
| 1778091400 | 11.11° C | 76% | 1008.3 hPa | 0 mm | - | - | - |
| 1778090500 | 11.11° C | 77% | 1008.3 hPa | 0 mm | - | - | - |
| 1778088699 | 11.11° C | 75% | 1008.6 hPa | 0 mm | - | - | - |
| 1778087800 | 11.11° C | 78% | 1008.7 hPa | 0 mm | - | - | - |
| 1778086898 | 10.56° C | 80% | 1008.7 hPa | 0 mm | - | - | - |
| 1778085998 | 10.56° C | 79% | 1008.8 hPa | 0 mm | - | - | - |
| 1778085680 | 11.11° C | 80% | 1009.1 hPa | 0 mm | - | - | - |
| 1778085098 | 10.56° C | 80% | 1009.2 hPa | 0 mm | - | - | - |
| 1778083300 | 10.56° C | 76% | 1009.6 hPa | 0 mm | - | - | - |
| 1778082400 | 10.56° C | 75% | 1009.5 hPa | 0 mm | - | - | - |
| 1778081500 | 11.11° C | 75% | 1009.6 hPa | 0 mm | - | - | - |
| 1778080599 | 11.11° C | 74% | 1010 hPa | 0 mm | - | - | - |
| 1778079699 | 11.11° C | 76% | 1010 hPa | 0 mm | - | - | - |
| 1778078798 | 11.67° C | 75% | 1010 hPa | 0 mm | - | - | - |
| 1778077899 | 11.67° C | 76% | 1009.9 hPa | 0 mm | - | - | - |
| 1778076999 | 11.11° C | 74% | 1009.9 hPa | 0 mm | - | - | - |
| 1778073399 | 12.22° C | 71% | 1009.7 hPa | 0 mm | - | - | - |
| 1778071598 | 12.22° C | 71% | 1010 hPa | 0 mm | - | - | - |
| 1778069798 | 13.33° C | 68% | 1010.3 hPa | 0 mm | - | - | - |
| 1778068900 | 13.89° C | 66% | 1010.7 hPa | 0 mm | - | - | - |
| 1778067999 | 13.89° C | 63% | 1010.6 hPa | 0 mm | - | - | - |
| 1778067099 | 14.44° C | 64% | 1010.7 hPa | 0 mm | - | - | - |
| 1778061699 | 16.67° C | 60% | 1010.7 hPa | 0 mm | - | - | - |
* Rain latest hour (hover to see other rain measurements)
** Current wind speed in m/s (hover to see current wind gust speed)